Weather History for Quantico, VA

Change the Weather History Date:

Monday, January 13, 2014

  Actual Average Record
Temperature  
Mean Temperature 44 °F -  
Max Temperature 57 °F 40 °F 68 °F (2005)
Min Temperature 30 °F 25 °F 19 °F (1997)
Degree Days  
Heating Degree Days 22    
Moisture  
Dew Point 33 °F    
Average Humidity 73    
Maximum Humidity 89    
Minimum Humidity 44    
Precipitation  
Precipitation 0.00 in - - ()
Sea Level Pressure  
Sea Level Pressure 30.03 in    
Wind  
Wind Speed 7 mph (SW)    
Max Wind Speed 16 mph    
Max Gust Speed 25 mph    
Visibility 10 miles    
Events      
Averages and records for this station are not official NWS values.
T = Trace of Precipitation, MM = Missing Value Source: NWS Daily Summary

Daily Weather History Graph

Daily Weather History Graph

Search for Another Location

Airport:

Trip Planner

Search our weather history database for the weather conditions in past years. The results will help you decide how hot, cold, wet, or windy it might be!

Date:

Astronomy

Jan. 13, 2014 Rise Set
Actual Time 7:25 AM EST 5:10 PM EST
Civil Twilight 6:56 AM EST 5:39 PM EST
Nautical Twilight 6:24 AM EST 6:12 PM EST
Astronomical Twilight 5:52 AM EST 6:44 PM EST
Moon 3:23 PM EST (1/13) 5:13 AM EST (1/13)
Length of Visible Light 10h 42m
Length of Day
9h 44m
Waxing Gibbous, 95% of the Moon is Illuminated
Jan 13
Waxing Gibbous
Jan 15
Full
Jan 24
Last Quarter
Jan 30
New
Feb 6
First Quarter

Hourly Weather History & Observations

Time (EST) Temp. Windchill Dew Point Humidity Pressure Visibility Wind Dir Wind Speed Gust Speed Precip Events Conditions
12:56 AM 32.0 °F 26.4 °F 28.0 °F 85% 30.12 in 10.0 mi WNW 5.8 mph - N/A   Clear
1:56 AM 30.9 °F 27.5 °F 28.0 °F 89% 30.13 in 10.0 mi NW 3.5 mph - N/A   Clear
2:56 AM 30.9 °F 27.5 °F 27.0 °F 85% 30.13 in 10.0 mi NW 3.5 mph - N/A   Clear
3:56 AM 30.0 °F 25.2 °F 27.0 °F 88% 30.12 in 10.0 mi NW 4.6 mph - N/A   Clear
4:56 AM 30.0 °F - 26.1 °F 85% 30.12 in 10.0 mi Calm Calm - N/A   Clear
5:56 AM 30.2 °F 25.4 °F 26.6 °F 86% 30.11 in 10.0 mi WNW 4.6 mph - N/A   Clear
6:56 AM 30.0 °F 26.5 °F 26.1 °F 85% 30.12 in 10.0 mi WNW 3.5 mph - N/A   Clear
8:56 AM 36.0 °F 31.1 °F 32.0 °F 86% 30.13 in 10.0 mi SW 5.8 mph - N/A   Scattered Clouds
9:56 AM 39.9 °F 34.5 °F 34.0 °F 79% 30.12 in 10.0 mi SSW 8.1 mph - N/A   Scattered Clouds
10:56 AM 44.1 °F 39.0 °F 35.1 °F 71% 30.09 in 10.0 mi SSW 9.2 mph - N/A   Scattered Clouds
11:56 AM 44.1 °F 38.1 °F 37.0 °F 76% 30.04 in 10.0 mi South 11.5 mph - N/A   Scattered Clouds
12:56 PM 46.0 °F 40.2 °F 37.0 °F 71% 30.00 in 10.0 mi South 12.7 mph - N/A   Scattered Clouds
1:56 PM 57.0 °F - 35.1 °F 44% 29.97 in 10.0 mi SSW 16.1 mph 25.3 mph N/A   Scattered Clouds
2:56 PM 50.0 °F - 37.0 °F 61% 29.96 in 10.0 mi SSW 10.4 mph - N/A   Partly Cloudy
3:56 PM 51.1 °F - 36.0 °F 56% 29.98 in 10.0 mi SW 12.7 mph - N/A   Partly Cloudy
4:56 PM 48.9 °F - 36.0 °F 61% 29.97 in 10.0 mi SSW 9.2 mph - N/A   Partly Cloudy
5:56 PM 48.0 °F - 35.1 °F 61% 29.96 in 10.0 mi SW 10.4 mph - N/A   Mostly Cloudy
6:56 PM 46.0 °F 43.1 °F 35.1 °F 66% 29.96 in 10.0 mi SW 5.8 mph - N/A   Mostly Cloudy
7:56 PM 48.0 °F - 36.0 °F 63% 29.96 in 10.0 mi SSW 11.5 mph - N/A   Mostly Cloudy
8:56 PM 48.0 °F - 36.0 °F 63% 29.96 in 10.0 mi SW 9.2 mph - N/A   Clear
9:56 PM 44.1 °F 38.1 °F 35.1 °F 71% 29.94 in 10.0 mi SSW 11.5 mph - N/A   Clear
10:56 PM 46.9 °F - 36.0 °F 66% 29.94 in 10.0 mi SW 8.1 mph - N/A   Clear
11:56 PM 45.0 °F 41.2 °F 36.0 °F 71% 29.90 in 10.0 mi SSW 6.9 mph - N/A   Clear